Regional Weather Roundup
Issued by NWS Sioux Falls, SD

Home | Current Version | Previous Version | Text Only | Print | Product List | Glossary On
Versions: 1 2 3 4 5 6 7 8 9 10 11 12 13 14 15 16 17 18 19 20 21 22 23 24 25 26 27 28 29 30 31 32 33 34 35 36 37 38 39 40 41 42 43 44 45 46 47 48 49 50
410
ASUS43 KFSD 252102
RWRFSD

WEATHER ROUNDUP FOR SE SOUTH DAKOTA/SW MINNESOTA/NW IOWA
NATIONAL WEATHER SERVICE SIOUX FALLS SD
400 PM CDT MON SEP 25 2017

NOTE: "FAIR" INDICATES FEW OR NO CLOUDS BELOW 12,000 FEET WITH NO
SIGNIFICANT WEATHER AND OR OBSTRUCTIONS TO VISIBILITY.


SDZ038>040-050-052>070-252200-
SOUTHEAST SOUTH DAKOTA

CITY           SKY/WX    TMP DP  RH WIND       PRES   REMARKS
BROOKINGS      LGT RAIN  53  49  86 N13       30.01F
CHAMBERLAIN    CLOUDY    55  48  79 NE8       30.07F
HURON          CLOUDY    53  48  83 N14       30.05F
MADISON        MOCLDY    50  50 100 N13       30.01F
MITCHELL       CLOUDY    53  50  89 N12       30.04S
SIOUX FALLS    LGT RAIN  56  54  93 N9        29.99F
WINNER         CLOUDY    53  46  77 N8        30.08F
YANKTON        LGT RAIN  54  52  93 NW9       30.02R
$$

MNZ071-072-080-081-089-090-097-098-252200-
SOUTHWEST MINNESOTA

CITY           SKY/WX    TMP DP  RH WIND       PRES   REMARKS
FAIRMONT       CLOUDY    58  55  90 N9        29.97F
JACKSON        LGT RAIN  55  54  94 NE12      29.97F
LUVERNE        CLOUDY    55  50  82 N8        29.98S
MARSHALL       CLOUDY    57  51  80 N10       30.00F
MONTEVIDEO     CLOUDY    57  54  88 NE6       30.02S
PIPESTONE      RAIN      55  52  88 NE7       29.98F
REDWOOD FALLS  CLOUDY    60  52  74 N9        29.98F
TRACY          DRIZZLE   57  54  88 N10       29.99F
WORTHINGTON    CLOUDY    55  53  93 N8        29.97F
$$

IAZ001>003-012>014-020>022-031-032-NEZ013-014-SDZ071-252200-
NORTHWEST IOWA

CITY           SKY/WX    TMP DP  RH WIND       PRES   REMARKS
CHEROKEE       CLOUDY    59  59  99 NE7       29.94S
DENISON        PTSUNNY   66  64  94 N7        29.92S
ESTHERVILLE    LGT RAIN  56  56 100 N14       29.94F
LE MARS        CLOUDY    57  55  94 N10       29.96R
ORANGE CITY    CLOUDY    57  57 100 NE8       29.95F
SHELDON        CLOUDY    57  54  88 N9        29.94F
SIOUX CITY     LGT RAIN  58  56  93 N7        29.96R
SPENCER        CLOUDY    59  56  89 NE14      29.93F
STORM LAKE       N/A     59  59 100 NE12      29.93S
$$

ABBREVIATIONS USED IN REMARKS
   TC - TEMPERATURE IN CELSIUS
  WCI - WIND CHILL INDEX
   HX - HEAT INDEX
  VSB - VISIBILITY





USA.gov is the U.S. government's official web portal to all federal, state and local government web resources and services.